Wetbulb
58.22 58.60 58.69 58.78 58.97 59.29 59.39 59.69 59.90 60.19 60.55 60.57 60.62 60.40 60.56 61.06 60.14 57.00 50.63 55.31 56.82 65.91 66.06 59.22 58.44 58.03 54.31 51.00 49.40 47.90 40.93 39.69 43.06 44.62 45.06 49.08 46.54 50.21 52.45 51.31 54.42 55.24 54.32 55.66 59.73
57.78 58.01 58.37 58.38 58.81 59.17 59.29 59.43 59.77 60.00 60.09 60.33 60.23 60.05 60.18 60.60 56.46 51.54 60.21 65.39 67.59 68.61 55.85 55.30 54.41 54.97 48.78 49.09 48.22 45.31 41.15 43.30 48.28 47.51 45.11 48.47 48.31 49.72 50.07 50.75 52.42 54.11 56.04 57.90 58.89
57.15 57.52 57.90 57.97 58.43 58.93 59.03 59.26 59.45 59.89 60.14 59.95 59.73 59.88 60.07 59.63 53.16 47.53 65.41 67.31 67.83 67.65 58.46 56.21 55.57 51.11 47.22 48.19 45.91 44.26 43.20 47.74 48.94 50.57 49.09 48.10 48.93 49.36 49.21 46.67 51.15 51.58 52.86 55.78 56.94
56.77 57.11 57.41 57.64 58.01 58.51 58.92 59.09 59.32 59.92 59.88 59.42 59.56 60.02 59.89 57.18 42.52 49.63 65.86 67.72 68.27 64.47 58.26 55.10 52.49 48.05 45.30 43.46 45.91 42.28 47.89 48.78 48.10 49.72 47.90 47.13 49.81 49.05 48.68 47.89 53.19 53.47 54.03 53.84 53.50
56.49 56.79 56.91 57.27 57.91 58.26 58.51 58.76 58.89 59.03 59.03 59.00 59.58 60.39 56.72 50.23 49.21 55.27 68.54 66.94 62.62 58.08 53.85 51.80 48.07 46.93 44.55 45.75 46.25 44.09 47.42 49.13 48.62 47.13 45.92 49.49 48.40 48.40 47.85 51.24 53.45 53.75 54.04 52.93 52.41
56.39 56.44 56.47 56.75 57.51 57.76 57.68 57.70 57.72 57.84 58.52 59.36 60.03 59.82 55.44 49.74 55.20 56.85 57.97 56.69 56.36 54.61 54.25 52.93 49.97 50.91 47.46 46.07 44.65 47.08 47.18 46.87 47.33 47.13 47.40 47.04 48.05 48.51 49.69 51.99 51.89 52.33 51.81 51.06 51.80
56.16 56.10 56.23 56.76 57.14 57.41 57.35 57.25 56.97 57.81 58.84 60.20 61.24 59.42 54.46 52.88 55.80 56.26 56.03 52.68 54.50 55.78 53.41 53.85 53.58 51.10 50.09 47.50 49.22 48.59 43.81 46.85 46.77 47.85 47.31 49.12 46.39 47.31 50.80 51.16 50.43 51.59 51.86 52.35 52.22
55.72 55.82 56.00 56.29 56.88 57.23 57.56 57.37 57.26 58.36 59.97 60.98 62.27 56.60 52.60 55.71 56.39 55.70 56.58 55.93 56.73 55.55 55.01 53.95 54.25 51.61 48.97 49.64 49.58 45.02 43.36 38.82 46.18 48.52 48.92 47.55 40.84 48.33 50.68 49.99 49.58 51.22 51.80 52.84 52.04
55.70 55.55 55.55 55.79 56.66 57.23 56.76 56.51 57.96 59.78 61.22 61.15 55.62 54.49 52.00 58.91 56.17 57.24 55.32 54.86 55.92 56.38 55.65 57.55 52.62 50.59 51.18 45.68 42.53 43.74 38.19 40.92 45.00 48.28 47.80 45.71 42.15 48.46 50.95 50.12 49.28 49.57 50.52 51.57 50.98
55.49 55.36 55.37 55.59 56.28 56.37 55.70 56.17 58.69 57.95 60.59 59.28 57.80 51.20 54.66 52.07 56.62 57.46 56.81 56.81 54.94 54.77 53.93 53.01 49.24 46.42 44.95 43.19 36.44 39.21 40.28 41.86 42.54 46.79 46.65 44.48 44.05 47.53 49.23 49.11 48.75 48.68 49.19 49.87 50.07
55.27 55.43 55.45 55.69 56.03 55.60 55.57 56.05 52.52 52.33 53.56 51.19 53.29 54.98 55.69 56.95 57.65 55.61 57.44 55.69 55.38 52.88 47.54 50.81 44.08 41.73 44.18 46.50 46.20 44.69 42.86 42.24 45.21 48.61 45.72 44.23 44.53 46.72 48.03 47.11 46.96 47.64 48.55 48.99 52.20
55.18 55.65 55.53 55.67 55.68 55.47 52.97 53.28 56.12 54.40 50.53 56.62 55.98 55.37 56.55 56.33 52.72 54.76 57.39 52.47 51.43 46.96 49.30 46.38 42.32 47.93 49.20 48.61 46.57 44.86 42.63 42.23 45.70 48.15 45.60 43.92 44.15 46.35 47.05 47.66 48.38 49.05 48.75 47.64 53.45
54.57 55.43 55.52 55.39 55.29 53.14 54.58 57.59 56.75 55.93 48.97 55.41 55.61 53.17 52.84 53.44 52.07 53.38 55.02 52.34 49.26 47.03 46.80 43.36 46.54 50.54 49.09 46.70 45.84 43.73 42.18 42.08 41.65 44.89 44.87 43.11 40.63 43.08 47.62 48.92 49.49 47.24 47.60 48.62 50.35
53.96 54.94 55.55 55.17 53.58 57.20 56.69 59.95 56.96 59.44 45.85 51.95 49.40 52.28 54.56 52.97 51.47 56.59 57.07 53.27 49.60 46.50 47.80 45.41 49.28 49.17 46.70 46.19 45.28 40.27 46.81 45.52 43.94 40.18 33.79 42.18 34.27 41.57 44.37 46.48 48.16 46.64 46.20 47.30 48.80
53.49 54.57 55.00 53.05 53.98 55.79 56.27 56.24 55.83 57.30 38.37 50.36 51.38 54.80 53.38 50.88 53.30 55.24 57.82 55.33 48.32 48.70 48.05 45.92 47.60 46.61 45.59 46.35 47.23 43.21 47.01 44.48 44.13 39.55 37.50 39.48 34.61 41.40 44.07 44.06 46.64 48.72 49.77 49.56 51.64
53.01 53.86 53.48 56.24 55.57 57.90 57.91 56.56 56.35 45.93 40.29 49.10 51.32 50.14 49.35 51.06 51.85 54.55 54.73 55.34 53.65 49.22 49.65 48.21 51.25 49.11 47.25 49.51 48.90 48.43 44.55 43.30 40.96 37.51 30.11 38.06 36.91 35.17 40.69 43.60 46.48 48.71 49.35 51.62 51.85
52.74 52.99 52.06 59.15 56.38 58.82 58.39 54.03 43.94 40.89 53.65 48.74 48.67 50.12 49.19 49.53 51.07 52.44 50.94 47.90 44.73 41.20 41.54 45.97 46.40 49.29 50.66 45.73 47.46 44.59 37.92 28.49 27.84 27.83 29.39 40.21 36.26 36.12 43.90 46.83 46.76 46.64 48.09 49.82 51.16
51.60 50.76 56.80 60.94 61.41 60.16 57.21 49.11 38.90 49.47 48.26 51.65 50.64 49.79 47.38 49.84 50.42 50.66 48.69 45.30 48.94 46.74 40.71 39.14 37.87 46.04 49.47 45.63 41.02 40.60 36.63 28.95 25.30 25.09 31.43 39.30 32.29 36.85 46.10 47.76 48.49 48.89 49.57 51.23 51.11
50.33 57.61 59.03 62.21 60.74 59.93 53.69 43.49 44.92 48.46 50.45 49.29 49.13 45.68 46.76 49.64 48.98 48.69 46.85 47.12 48.22 47.06 39.47 37.79 40.24 47.71 48.51 48.20 45.14 40.82 35.10 40.97 33.40 35.17 30.18 33.72 38.81 42.82 47.21 47.39 47.09 47.31 48.19 48.99 49.35
55.52 59.79 60.17 59.76 61.15 57.92 51.40 46.92 50.74 52.16 51.55 51.26 45.20 48.49 44.59 46.80 46.41 46.02 46.09 49.51 48.51 49.41 47.46 42.70 34.30 44.87 47.05 48.46 47.39 42.29 44.11 33.21 34.36 27.07 25.44 32.29 34.38 36.01 40.79 42.78 46.49 45.26 45.83 47.45 49.10
57.22 56.97 57.16 58.94 59.69 53.34 47.50 51.26 50.75 52.89 52.52 49.06 46.54 45.86 46.28 46.03 46.38 44.95 46.34 48.86 50.76 48.62 47.68 43.31 37.99 40.33 44.38 41.54 40.06 40.52 36.84 37.29 36.74 36.90 25.44 26.21 30.14 43.19 41.36 41.14 40.97 42.60 44.99 45.42 46.07
55.49 51.59 56.91 58.54 49.92 52.24 47.65 51.68 49.17 51.26 53.19 51.74 50.79 48.97 46.50 46.85 44.82 44.43 44.61 47.64 51.43 49.30 43.10 43.76 39.63 34.73 38.71 44.54 46.10 43.73 41.60 39.27 33.42 31.64 34.97 33.73 32.48 43.96 43.61 44.13 44.02 45.00 45.74 45.42 47.25
51.20 53.73 58.67 57.44 45.83 46.79 50.74 51.43 51.62 50.01 49.80 48.90 48.05 49.34 48.17 44.27 39.26 45.43 46.72 51.33 51.04 48.01 43.43 41.92 35.13 27.79 33.12 39.27 43.79 40.91 42.30 41.09 39.22 35.77 31.08 29.59 30.77 45.59 45.60 42.72 43.98 44.28 43.94 44.77 45.74
52.60 48.90 53.26 54.52 52.65 48.62 47.17 49.81 48.34 51.17 51.04 50.99 48.48 49.30 46.08 44.38 45.16 43.31 44.95 49.38 51.37 50.27 52.90 46.66 37.00 34.30 29.03 35.54 41.37 37.70 40.64 42.09 39.07 31.62 32.35 33.24 36.68 39.81 41.18 41.29 42.81 42.90 43.38 44.08 43.85
54.44 50.18 50.66 45.58 47.78 47.95 47.85 48.48 48.00 47.74 49.31 49.38 46.42 48.03 45.18 39.22 41.97 40.98 44.20 45.93 48.00 52.17 46.44 41.83 35.32 39.16 41.54 42.49 41.99 40.78 41.13 40.59 37.20 38.95 32.05 34.75 35.20 38.34 40.18 40.71 41.92 43.36 43.66 43.92 44.25
48.42 48.03 49.39 47.74 50.98 48.69 45.87 47.50 47.75 46.99 46.03 45.98 44.82 46.26 44.57 39.10 41.13 39.88 42.64 41.61 40.92 44.58 42.10 42.66 35.59 38.76 37.65 42.19 41.39 38.53 41.07 40.34 40.45 39.91 38.30 37.89 37.01 41.90 42.35 42.87 42.67 42.26 42.77 42.74 43.15
51.19 51.57 49.71 48.18 48.65 46.43 45.18 46.28 46.62 46.95 49.08 49.19 46.32 43.72 42.84 44.98 46.28 45.25 44.49 43.83 43.66 40.42 39.54 39.70 37.38 35.81 31.47 39.48 38.37 30.72 38.32 39.10 39.45 41.12 39.84 32.88 37.34 40.98 40.70 41.40 41.32 41.35 42.51 42.01 42.62
MSLP
1016.42 1016.19 1015.94 1015.72 1015.48 1015.24 1015.02 1014.77 1014.45 1014.12 1013.99 1014.00 1013.73 1013.43 1013.10 1012.59 1011.63 1011.38 1010.91 1010.18 1009.99 1009.71 1009.89 1009.32 1008.63 1007.97 1007.76 1007.71 1007.33 1007.62 1008.84 1008.88 1008.75 1007.71 1007.62 1006.89 1007.02 1006.83 1006.83 1006.98 1006.91 1007.62 1008.44 1008.34 1008.04
1016.45 1016.21 1016.01 1015.77 1015.49 1015.24 1015.03 1014.78 1014.46 1014.07 1013.93 1013.84 1013.67 1013.33 1012.88 1012.64 1012.12 1010.91 1009.77 1009.54 1009.48 1009.79 1009.68 1009.32 1008.61 1007.84 1007.85 1007.31 1007.14 1007.63 1008.40 1008.24 1007.94 1007.77 1007.69 1007.21 1006.97 1006.99 1007.03 1007.21 1007.63 1007.87 1008.26 1008.48 1008.40
1016.51 1016.25 1016.01 1015.77 1015.49 1015.23 1014.98 1014.72 1014.38 1013.98 1013.78 1013.77 1013.57 1013.17 1012.74 1012.56 1011.85 1010.25 1009.29 1009.25 1009.12 1009.58 1009.57 1009.07 1008.16 1007.55 1007.73 1007.21 1006.93 1007.13 1007.88 1007.70 1007.77 1007.61 1007.70 1007.60 1007.21 1007.02 1006.81 1007.56 1007.74 1008.44 1008.58 1008.82 1008.99
1016.55 1016.27 1016.01 1015.77 1015.49 1015.23 1015.00 1014.70 1014.33 1013.88 1013.61 1013.60 1013.53 1012.98 1012.27 1012.27 1011.43 1009.61 1009.04 1008.73 1008.66 1009.15 1009.38 1008.71 1008.01 1007.89 1007.47 1007.12 1006.85 1007.26 1007.32 1007.44 1007.81 1007.73 1007.96 1008.01 1007.57 1007.22 1007.20 1007.82 1008.03 1008.54 1008.70 1008.82 1009.58
1016.55 1016.27 1016.02 1015.76 1015.49 1015.26 1015.02 1014.73 1014.37 1013.92 1013.58 1013.46 1013.35 1012.88 1011.89 1011.58 1010.19 1009.17 1008.83 1008.46 1008.41 1008.33 1008.48 1008.37 1008.29 1007.87 1007.97 1007.36 1007.04 1007.36 1007.43 1007.41 1007.51 1007.63 1007.82 1007.83 1007.80 1007.61 1007.49 1007.64 1007.77 1008.04 1008.35 1008.87 1009.34
1016.52 1016.26 1015.99 1015.74 1015.49 1015.24 1014.98 1014.68 1014.32 1013.93 1013.57 1013.45 1013.30 1012.87 1012.41 1010.92 1008.83 1008.73 1008.55 1008.47 1008.32 1008.11 1008.07 1008.03 1008.27 1007.96 1007.95 1007.65 1007.73 1007.72 1007.73 1007.77 1007.68 1007.79 1007.90 1008.13 1008.16 1008.05 1007.92 1007.44 1007.85 1007.95 1008.18 1008.60 1009.13
1016.46 1016.21 1015.94 1015.68 1015.43 1015.16 1014.87 1014.54 1014.14 1013.72 1013.47 1013.46 1013.41 1012.99 1011.85 1009.97 1008.49 1008.48 1008.46 1008.44 1008.40 1008.31 1008.40 1008.36 1008.30 1008.59 1008.15 1008.23 1007.78 1007.81 1008.30 1008.14 1008.04 1007.93 1008.24 1008.23 1008.64 1008.39 1007.59 1007.34 1007.53 1007.84 1008.09 1008.54 1009.04
1016.35 1016.12 1015.87 1015.63 1015.39 1015.11 1014.79 1014.43 1013.97 1013.44 1013.05 1013.27 1013.32 1012.82 1011.13 1008.72 1008.56 1008.44 1008.29 1008.24 1008.17 1008.04 1008.23 1008.29 1008.25 1008.45 1008.27 1008.06 1008.18 1008.47 1008.66 1009.04 1008.10 1008.06 1008.30 1008.63 1008.97 1008.39 1007.70 1007.18 1007.83 1007.85 1007.95 1008.09 1008.56
1016.23 1016.00 1015.77 1015.52 1015.26 1014.98 1014.65 1014.24 1013.70 1013.30 1012.78 1012.79 1012.79 1012.15 1010.41 1008.76 1008.63 1008.41 1008.36 1008.38 1008.24 1007.99 1007.93 1007.88 1008.29 1008.40 1008.17 1008.53 1009.33 1009.17 1009.55 1009.21 1008.58 1008.19 1008.73 1009.06 1009.00 1008.06 1007.36 1007.48 1007.96 1008.00 1007.80 1007.98 1008.24
1016.08 1015.85 1015.63 1015.39 1015.14 1014.89 1014.35 1013.93 1013.28 1013.27 1011.96 1012.05 1011.70 1011.57 1009.67 1008.57 1008.44 1008.46 1008.36 1008.33 1008.42 1008.17 1008.13 1007.93 1008.50 1008.67 1008.57 1009.09 1009.91 1009.77 1009.91 1009.57 1009.35 1008.59 1008.61 1008.94 1008.57 1008.10 1007.56 1007.43 1007.73 1007.64 1007.71 1007.97 1008.16
1015.92 1015.65 1015.46 1015.32 1015.17 1014.98 1014.02 1013.43 1013.63 1013.10 1012.20 1011.16 1010.45 1009.48 1008.57 1008.59 1008.58 1008.48 1008.34 1008.39 1008.31 1008.45 1008.66 1008.27 1008.63 1008.89 1008.69 1008.80 1009.20 1009.64 1009.96 1010.09 1009.74 1009.14 1009.19 1009.32 1009.09 1008.59 1008.01 1007.66 1007.76 1007.77 1007.67 1007.68 1008.34
1015.84 1015.50 1015.28 1015.20 1015.14 1015.03 1014.95 1013.74 1011.79 1011.16 1010.76 1010.12 1009.62 1008.96 1008.45 1008.37 1008.44 1008.22 1008.30 1008.79 1008.94 1009.26 1008.91 1008.87 1008.71 1008.70 1008.45 1008.67 1009.23 1009.70 1010.19 1010.34 1009.82 1009.59 1009.70 1009.73 1009.39 1008.76 1008.23 1007.76 1007.52 1007.28 1007.34 1007.92 1008.75
1015.84 1015.50 1015.26 1015.09 1014.90 1015.05 1013.98 1012.45 1010.56 1010.44 1010.52 1008.92 1008.71 1008.35 1008.37 1008.66 1008.41 1008.53 1008.77 1009.31 1009.62 1009.68 1009.65 1009.54 1009.04 1008.42 1008.45 1009.02 1009.59 1010.06 1010.63 1011.01 1011.18 1010.78 1010.66 1010.65 1010.29 1009.74 1008.52 1007.68 1007.00 1006.74 1006.85 1007.39 1008.43
1015.84 1015.46 1015.20 1014.87 1014.84 1013.38 1012.55 1010.97 1010.46 1010.43 1010.65 1008.68 1008.12 1007.54 1008.02 1008.34 1008.53 1008.48 1009.17 1009.93 1010.14 1010.22 1010.11 1009.92 1009.21 1009.09 1008.91 1009.23 1009.87 1010.58 1010.93 1011.43 1011.88 1012.26 1012.23 1012.25 1011.21 1010.26 1009.03 1008.31 1007.64 1007.06 1007.30 1007.52 1007.89
1015.75 1015.33 1015.09 1015.06 1014.57 1013.04 1011.19 1010.51 1010.56 1010.88 1010.44 1008.36 1007.73 1007.45 1007.57 1008.38 1008.74 1009.20 1009.36 1009.84 1010.36 1010.63 1010.94 1010.67 1010.11 1009.51 1009.39 1009.70 1010.35 1011.17 1011.40 1012.16 1012.74 1013.19 1013.15 1012.75 1012.79 1010.82 1009.86 1009.70 1009.86 1009.74 1009.55 1009.80 1010.29
1015.65 1015.22 1014.90 1014.69 1014.28 1012.21 1010.93 1010.71 1011.09 1011.54 1009.41 1007.82 1007.76 1007.76 1008.13 1008.21 1008.35 1008.92 1009.29 1009.71 1009.82 1010.46 1010.96 1010.80 1010.02 1009.33 1009.96 1010.25 1010.77 1011.43 1012.19 1012.97 1013.58 1014.21 1014.51 1013.59 1013.64 1012.15 1011.82 1012.13 1011.93 1011.95 1012.24 1012.57 1012.82
1015.53 1015.02 1014.92 1013.92 1012.88 1011.25 1011.24 1011.66 1011.88 1010.79 1008.25 1008.25 1008.02 1007.97 1008.10 1008.15 1008.52 1008.85 1009.42 1010.00 1010.53 1011.37 1012.20 1011.71 1011.22 1010.67 1011.03 1011.28 1011.50 1012.31 1013.78 1014.89 1015.52 1016.07 1015.91 1014.55 1014.10 1013.35 1012.62 1012.44 1012.63 1012.98 1013.08 1013.26 1013.44
1015.31 1015.01 1013.63 1012.97 1012.24 1011.71 1012.02 1012.33 1011.83 1010.21 1009.21 1008.83 1008.65 1008.54 1008.69 1008.67 1008.86 1009.31 1009.93 1010.58 1011.31 1012.27 1013.23 1013.40 1012.53 1012.34 1012.52 1012.50 1012.60 1013.27 1014.56 1016.06 1016.57 1016.94 1016.31 1015.52 1014.57 1013.18 1012.74 1012.48 1012.48 1012.87 1013.30 1013.53 1013.86
1014.76 1014.10 1013.61 1012.15 1011.84 1011.97 1012.74 1012.60 1011.30 1010.68 1010.71 1010.23 1009.82 1009.49 1009.30 1008.93 1009.68 1010.18 1010.69 1011.23 1012.24 1013.08 1014.20 1014.61 1014.17 1013.19 1013.37 1012.94 1013.14 1013.74 1014.89 1015.62 1016.45 1016.91 1016.53 1015.72 1014.34 1013.36 1012.50 1012.88 1013.26 1013.31 1013.39 1014.10 1014.09
1015.20 1014.03 1012.64 1011.44 1011.56 1012.37 1013.16 1012.38 1011.42 1011.36 1011.29 1010.98 1010.96 1010.68 1010.76 1010.92 1011.06 1011.28 1011.60 1012.29 1013.14 1013.85 1014.51 1015.60 1015.55 1015.03 1014.10 1013.74 1013.55 1014.19 1014.97 1015.45 1016.74 1017.53 1017.60 1016.40 1015.80 1014.74 1014.79 1014.49 1014.31 1014.30 1014.62 1014.58 1014.24
1015.36 1013.85 1011.87 1011.17 1011.59 1012.68 1013.14 1012.20 1011.67 1011.65 1011.86 1011.86 1012.07 1012.27 1012.33 1012.37 1012.45 1012.64 1012.74 1013.86 1013.88 1014.68 1015.32 1016.08 1016.52 1016.26 1015.84 1014.91 1014.90 1014.89 1015.19 1015.93 1016.87 1017.73 1018.41 1017.74 1016.57 1015.44 1015.69 1015.61 1015.57 1015.39 1015.26 1015.18 1015.17
1015.65 1013.85 1011.62 1011.23 1012.32 1012.48 1012.60 1012.36 1012.43 1012.16 1012.13 1012.25 1012.60 1013.00 1013.47 1013.70 1013.84 1013.90 1013.82 1014.18 1014.73 1015.27 1016.09 1017.03 1017.35 1017.55 1017.13 1015.52 1015.51 1015.36 1015.87 1016.50 1017.72 1018.23 1018.27 1018.01 1016.54 1016.18 1016.19 1016.11 1015.72 1015.77 1015.62 1015.77 1015.51
1017.00 1013.97 1011.69 1011.52 1012.89 1013.28 1012.72 1012.58 1012.70 1012.87 1013.05 1013.35 1013.50 1013.94 1014.38 1014.76 1014.97 1014.67 1014.47 1014.54 1014.86 1015.47 1016.38 1017.38 1018.50 1018.82 1017.89 1016.52 1015.65 1015.80 1016.16 1016.52 1017.11 1017.77 1018.53 1019.28 1018.00 1016.92 1016.53 1016.25 1016.21 1016.06 1015.84 1015.88 1015.75
1017.58 1014.90 1013.33 1012.88 1013.45 1013.97 1013.78 1013.10 1013.16 1013.43 1013.52 1013.95 1014.16 1014.40 1014.89 1015.37 1015.44 1015.55 1015.35 1015.10 1015.42 1015.78 1016.54 1017.57 1018.90 1019.56 1019.39 1018.29 1017.36 1016.65 1016.64 1016.84 1017.27 1018.15 1018.65 1019.05 1018.77 1017.75 1017.49 1017.32 1016.78 1016.61 1016.56 1016.21 1015.86
1017.34 1016.34 1015.80 1015.24 1014.83 1014.67 1014.22 1013.99 1013.58 1013.69 1014.05 1014.19 1014.55 1014.98 1015.58 1016.14 1016.39 1016.39 1016.33 1016.03 1016.13 1016.63 1017.32 1018.22 1019.09 1019.47 1019.29 1018.61 1017.82 1017.12 1016.63 1016.89 1017.42 1018.04 1019.38 1019.66 1019.75 1018.98 1018.42 1017.93 1017.47 1017.09 1016.61 1016.13 1015.61
1018.68 1018.06 1017.27 1016.35 1015.30 1015.01 1014.67 1014.02 1014.18 1014.52 1014.83 1014.89 1015.39 1015.77 1016.29 1016.93 1017.29 1017.39 1017.41 1017.46 1017.51 1017.40 1018.00 1018.47 1019.03 1019.43 1019.27 1018.64 1018.07 1017.32 1017.18 1017.55 1018.12 1018.59 1019.09 1019.14 1018.84 1019.03 1018.64 1017.81 1017.45 1017.26 1016.55 1015.80 1015.30
1019.91 1019.07 1018.37 1016.97 1015.93 1015.27 1014.89 1014.74 1014.73 1015.08 1015.17 1015.43 1015.92 1016.41 1016.94 1017.41 1017.46 1017.50 1017.47 1017.49 1017.67 1018.00 1018.53 1018.95 1019.40 1019.73 1019.41 1019.04 1018.40 1018.16 1018.51 1018.69 1018.99 1019.13 1019.37 1019.63 1019.59 1018.87 1018.32 1018.02 1017.60 1016.94 1016.33 1015.90 1015.55
Wind_Speed
9 9 9 9 9 9 9 9 10 11 11 10 11 12 12 13 15 2 4 5 4 7 5 8 9 12 9 7 4 1 3 4 7 7 4 5 3 3 3 4 5 6 9 4 3
11 10 9 9 9 9 9 9 10 11 11 11 11 12 12 11 4 5 4 8 8 1 5 8 13 10 3 5 4 5 3 6 3 5 5 7 4 6 3 4 3 7 8 7 7
11 10 10 9 9 9 9 10 11 12 11 10 10 12 12 8 5 1 6 9 10 7 7 11 16 6 6 6 2 2 3 5 4 7 8 6 9 6 7 5 3 8 6 7 6
11 11 10 10 9 9 10 11 12 13 13 11 9 12 13 3 3 2 8 11 11 5 5 9 9 8 4 2 2 4 4 5 3 6 5 6 8 7 6 0 10 9 7 6 3
11 11 11 10 9 10 10 11 12 14 13 12 11 11 7 4 6 7 11 12 10 6 4 2 1 5 6 5 4 3 1 5 1 3 1 5 8 5 8 4 7 6 8 6 6
10 10 10 10 10 10 11 11 13 13 13 11 11 14 2 6 5 5 8 4 9 10 8 10 7 9 5 3 3 3 5 5 5 6 4 4 5 6 8 7 6 7 3 1 5
10 10 10 10 10 11 11 12 13 14 13 9 7 5 5 11 0 6 7 3 2 5 7 7 10 8 7 7 4 3 4 8 6 7 5 4 2 8 13 8 9 8 6 2 5
10 10 10 10 10 11 12 13 14 15 15 7 2 2 7 2 4 6 7 6 6 1 3 3 6 7 4 5 6 5 4 3 12 9 6 10 8 13 10 5 7 9 8 8 8
10 10 9 10 10 11 12 14 13 12 14 10 4 4 8 1 3 4 4 7 8 6 5 6 3 6 6 4 5 3 4 5 6 7 6 7 7 14 10 4 7 9 9 9 9
11 9 10 9 9 11 14 8 8 12 7 6 7 6 6 5 3 4 4 4 7 8 8 8 3 4 4 3 2 5 7 8 7 10 3 8 8 6 3 4 8 8 7 8 9
13 9 9 10 9 9 9 4 4 3 4 7 5 5 6 7 3 6 2 5 7 6 5 6 2 6 2 6 5 6 7 7 8 11 5 6 7 9 8 7 9 9 9 9 9
13 10 8 8 8 7 2 4 7 6 7 14 17 10 5 4 5 7 2 5 7 7 11 8 6 7 6 8 7 6 8 9 7 7 8 9 14 12 11 12 13 16 11 8 12
13 11 8 7 7 2 5 8 8 7 3 10 15 6 5 4 8 8 6 7 8 9 10 5 9 14 5 6 7 6 5 8 8 9 8 9 10 9 20 18 15 5 10 9 14
13 11 9 11 1 4 6 12 6 7 2 6 6 6 6 5 5 7 7 4 6 6 8 6 11 15 7 3 7 5 10 11 11 8 4 3 13 10 12 14 12 5 8 8 8
16 12 10 1 5 5 3 4 6 5 2 8 6 3 3 5 7 3 6 2 5 6 3 8 12 11 5 2 8 6 3 6 9 8 8 7 3 12 9 10 21 22 18 16 25
19 14 15 4 3 9 8 7 4 2 5 7 7 8 6 8 9 8 3 5 7 7 5 10 13 4 5 7 5 6 8 7 5 4 4 7 4 7 7 12 16 17 17 19 20
21 16 7 5 5 7 7 4 3 3 3 4 2 6 7 5 9 6 4 4 3 5 7 13 11 9 14 6 7 8 8 6 6 6 7 8 7 6 8 13 15 14 12 13 13
21 12 6 6 9 6 5 4 3 10 15 4 7 6 5 6 3 5 2 5 9 9 3 4 8 16 17 9 4 4 1 5 6 3 8 4 6 6 7 12 10 10 12 11 9
19 2 3 6 5 3 4 1 3 6 9 9 9 6 9 1 5 2 4 3 5 6 4 4 5 22 14 11 5 5 3 9 5 5 4 5 8 5 15 12 8 7 8 6 4
3 3 5 3 6 3 2 6 4 9 8 8 5 5 8 7 7 8 7 6 5 9 8 4 5 6 12 14 7 4 6 7 4 5 11 2 6 8 11 18 10 11 9 10 11
2 2 3 2 4 2 2 4 8 10 7 6 7 7 8 8 9 7 6 8 8 9 7 4 4 6 8 4 11 13 8 6 0 3 1 5 6 16 15 8 6 5 6 6 6
4 2 2 3 2 2 0 2 2 9 7 5 1 6 6 8 7 7 8 6 4 4 3 1 2 4 8 19 12 8 6 5 2 10 8 9 11 13 13 11 9 12 6 5 6
4 3 4 5 2 4 4 4 5 7 6 6 6 7 7 4 3 5 6 7 7 4 5 2 3 5 9 8 12 10 14 13 12 2 6 5 7 16 13 5 7 8 7 7 7
3 4 5 3 3 4 5 6 5 4 2 2 4 3 4 5 6 5 7 6 2 3 10 7 3 6 6 11 13 13 15 17 11 1 4 4 5 7 10 11 13 10 11 9 8
2 3 3 4 5 6 3 6 6 3 5 3 3 2 5 1 6 4 9 8 11 9 4 5 5 5 9 14 17 20 20 11 9 5 2 9 14 8 10 10 9 10 11 14 14
4 4 6 5 4 5 2 0 3 7 6 5 5 8 7 4 4 4 7 5 4 3 5 4 3 6 8 12 16 19 12 12 12 10 2 9 13 8 9 10 9 12 17 18 18
4 5 1 6 5 3 1 4 5 4 3 3 5 3 5 6 7 7 7 7 8 5 3 3 2 3 6 10 15 8 8 9 7 9 9 7 5 9 12 12 12 16 16 14 16
Wind_Direction
352 350 347 342 337 335 334 330 325 318 321 329 329 336 336 330 309 209 286 258 262 334 330 276 284 268 250 261 210 119 43 294 303 54 157 192 126 39 5 52 76 92 123 187 321
353 349 347 343 338 336 333 328 322 317 323 329 337 333 323 333 286 301 245 264 266 88 319 303 295 279 262 272 207 124 124 261 47 41 34 13 27 154 135 12 90 108 120 118 59
353 348 346 344 341 337 332 326 322 317 319 331 336 322 310 322 309 118 229 254 267 171 244 274 274 266 243 221 252 259 160 358 53 54 25 359 351 336 93 18 53 139 120 122 123
353 349 347 343 343 336 331 326 321 317 318 329 336 319 308 236 39 215 260 262 258 249 286 280 303 299 288 139 45 4 83 56 25 72 27 326 323 345 40 43 117 118 95 40 73
351 349 346 343 339 333 327 323 317 313 315 323 336 336 346 307 229 222 251 273 280 274 275 298 347 357 13 357 51 336 353 127 96 42 252 6 329 326 315 348 121 129 134 169 265
346 346 344 340 335 330 325 320 313 307 307 319 337 322 274 296 157 201 251 1 345 356 5 18 347 328 305 353 61 319 338 312 151 228 166 179 283 2 280 242 184 158 145 346 296
342 340 339 334 330 325 321 316 309 302 298 306 320 312 280 249 61 180 263 142 294 337 352 10 341 360 330 322 315 236 244 274 248 202 175 111 258 274 275 242 211 164 159 229 288
340 334 331 329 324 320 317 314 308 302 299 301 258 286 261 56 324 258 271 266 213 167 283 297 282 297 271 276 328 265 286 244 227 199 202 114 241 264 272 313 182 181 202 202 222
338 329 323 321 317 317 316 310 294 300 288 291 283 182 272 277 241 229 303 354 337 310 258 230 274 235 301 240 336 283 312 349 11 199 156 151 221 236 255 266 228 238 220 203 212
338 327 317 312 316 325 311 270 295 322 275 238 255 330 241 226 152 1 280 240 269 289 293 242 226 240 308 92 217 344 347 336 321 314 254 245 258 260 268 305 269 276 250 228 215
343 329 317 311 321 343 342 332 332 324 245 221 278 225 147 82 118 255 86 299 275 304 279 255 24 279 355 80 27 345 331 315 294 283 356 334 331 323 324 323 287 270 257 246 113
353 340 327 321 326 329 292 271 310 265 307 224 254 265 36 43 245 222 129 339 358 310 304 336 245 277 8 19 1 325 299 287 285 341 15 337 312 302 293 280 264 258 251 130 138
355 353 342 323 310 298 227 250 287 297 286 286 219 228 179 190 270 85 50 354 323 320 332 333 292 328 44 358 322 311 338 350 332 334 353 339 311 322 302 296 291 202 147 129 141
348 347 344 327 341 270 232 243 8 69 332 225 187 210 138 207 270 96 57 17 321 304 338 316 332 321 338 302 46 2 351 350 338 354 291 33 294 301 282 289 300 184 157 170 179
344 340 332 2 298 297 345 342 19 44 306 141 157 74 224 202 154 96 151 201 283 307 335 268 298 296 322 51 32 287 318 306 293 292 316 288 251 292 302 356 17 18 12 23 20
337 336 335 101 215 249 328 360 36 26 250 171 142 194 221 201 235 147 172 178 230 227 334 307 308 301 55 22 358 329 354 324 340 307 329 278 24 301 37 54 33 24 33 41 36
329 325 327 330 255 353 357 357 7 226 151 126 189 171 211 254 191 184 127 303 259 58 12 318 20 56 33 11 346 16 15 336 348 354 248 332 3 249 63 49 45 21 20 40 50
321 319 259 249 289 13 1 18 259 358 21 46 10 335 299 259 98 13 339 285 50 64 51 10 325 29 352 335 293 351 38 162 264 270 278 341 263 266 97 39 34 45 18 23 45
316 219 246 259 235 28 46 304 314 21 15 359 326 286 291 315 76 121 279 61 70 74 99 16 287 338 332 323 66 313 310 242 272 297 306 225 273 351 79 22 40 34 23 40 37
330 301 252 249 107 48 63 250 68 51 8 359 343 343 348 18 5 27 14 41 91 70 97 5 321 276 307 334 313 260 292 351 312 310 277 326 324 271 8 9 18 11 24 10 8
260 283 218 270 99 45 234 308 74 87 46 10 14 338 343 0 10 3 340 40 33 38 35 6 151 294 339 292 329 325 323 329 133 12 256 324 293 314 9 34 10 1 54 16 351
319 322 237 72 47 214 61 52 350 24 23 10 328 16 36 14 360 346 339 109 107 99 34 97 257 300 287 288 289 346 350 360 124 286 247 262 272 7 342 19 355 359 44 2 323
311 249 271 93 40 341 349 108 74 41 39 12 337 44 28 337 334 314 349 144 133 117 143 117 337 342 327 338 345 358 331 317 311 8 329 334 285 319 313 9 352 3 36 359 343
305 336 354 26 96 18 9 338 123 113 101 21 329 5 345 7 348 332 342 359 88 10 118 98 168 174 222 269 296 314 309 308 298 156 306 281 297 297 12 1 357 4 350 335 326
305 13 353 324 16 337 352 306 316 105 38 287 311 23 49 2 330 289 341 345 3 130 135 127 201 244 289 315 311 307 314 352 353 351 118 324 321 355 356 347 339 322 334 326 318
19 10 338 291 266 292 235 354 13 47 16 337 18 17 12 339 345 334 2 21 276 320 20 348 291 307 286 296 299 304 329 5 359 8 294 307 314 8 316 327 330 331 323 321 317
357 329 305 283 292 264 66 68 64 99 276 74 27 359 316 10 335 295 269 236 232 259 266 244 251 325 265 296 313 326 15 358 340 325 326 319 304 316 324 323 319 323 309 318 326